Location: Unspecified
(43.4354°N, 0.0000°E)
Time: 00:35:43
(UTC+00:00)

Tiros 1 despin weight - Pass Details

Date: 27 June 2019
Orbit: 594 x 642 km, 48.2° (Epoch: 21 July)

Event Time Altitude Azimuth Distance (km) Brightness Sun altitude
Rises 01:06:27 0° 289° (WNW) 2,845 ? -21.6°
Reaches altitude 10° 01:08:48 10° 295° (WNW) 1,937 ? -21.5°
Maximum altitude 01:13:09 52° 12° (NNE) 744 ? -21.3°
Drops below altitude 10° 01:17:27 10° 89° (E) 1,924 ? -21.1°
Sets 01:19:47 0° 95° (E) 2,825 ? -20.9°
